Location: Maccacari
(45.1333°N, 11.1333°E)
Time: 18:30:22
(UTC+00:00)

USA 234 - Pass Details

Date: 25 January 2021
Orbit: 1100 x 1107 km, 123.0° (Epoch: 01 March)

Event Time Altitude Azimuth Distance (km) Brightness Sun altitude
Exits shadow 16:44:55 - 57° (ENE) 3,313 5.1 -6.0°
Reaches altitude 10° 16:45:56 10° 53° (NE) 2,965 4.9 -6.1°
Maximum altitude 16:51:34 32° 354° (N) 1,792 4.3 -7.1°
Drops below altitude 10° 16:57:12 10° 294° (WNW) 2,967 6.3 -8.0°
Sets 16:59:57 0° 285° (WNW) 3,925 7.2 -8.4°
